Santa Clara, CA

3:26 PM PST on December 10, 2016 (GMT -0800)
San Jose International

Weather History for KSJC - October, 2013

Change the Weather History Date:

Tuesday, October 8, 2013

  Actual Average Record
Temperature  
Mean Temperature 63 °F 65 °F  
Max Temperature 75 °F 76 °F 97 °F (1996)
Min Temperature 51 °F 54 °F 43 °F (1968)
Degree Days  
Heating Degree Days 2 2  
Month to date heating degree days 8 11  
Since 1 July heating degree days 17 30  
Cooling Degree Days 0 2  
Month to date cooling degree days 12 17  
Year to date cooling degree days 548 616  
Growing Degree Days 12 (Base 50)    
Moisture  
Dew Point 44 °F    
Average Humidity 56    
Maximum Humidity 83    
Minimum Humidity 29    
Precipitation  
Precipitation 0.00 in 0.02 in 0.55 in (1973)
Month to date precipitation 0.00 0.13  
Year to date precipitation 2.90 10.86  
Since 1 July precipitation 0.66  
Sea Level Pressure  
Sea Level Pressure 29.84 in    
Wind  
Wind Speed 6 mph (WNW)    
Max Wind Speed 16 mph    
Max Gust Speed 26 mph    
Visibility 10 miles    
Events      
T = Trace of Precipitation, MM = Missing Value Source: NWS Daily Summary

Daily Weather History Graph

Daily Weather History Graph

Search for Another Location

Airport or City:

Trip Planner

Search our weather history database for the weather conditions in past years. The results will help you decide how hot, cold, wet, or windy it might be!

Date:

Astronomy

Oct. 08, 2013 Rise Set
Actual Time 7:09 AM PDT 6:40 PM PDT
Civil Twilight 6:43 AM PDT 7:06 PM PDT
Nautical Twilight 6:13 AM PDT 7:36 PM PDT
Astronomical Twilight 5:42 AM PDT 8:06 PM PDT
Moon 11:04 AM PDT (10/8) 9:26 PM PDT (10/8)
Length of Visible Light 12h 22m
Length of Day
11h 30m
Waxing Crescent, 17% of the Moon is Illuminated
Oct 8
Waxing Crescent
Oct 11
First Quarter
Oct 18
Full
Oct 26
Last Quarter
Nov 3
New

Hourly Weather History & Observations

Time (PDT) Temp. Dew Point Humidity Pressure Visibility Wind Dir Wind Speed Gust Speed Precip Events Conditions
12:53 AM 57.9 °F 45.0 °F 62% 29.90 in 10.0 mi West 3.5 mph - N/A   Clear
1:53 AM 55.0 °F 43.0 °F 64% 29.91 in 10.0 mi Calm Calm - N/A   Clear
2:53 AM 54.0 °F 41.0 °F 62% 29.89 in 10.0 mi ESE 6.9 mph - N/A   Clear
3:53 AM 54.0 °F 41.0 °F 62% 29.88 in 10.0 mi Calm Calm - N/A   Clear
4:53 AM 52.0 °F 42.1 °F 69% 29.89 in 10.0 mi West 4.6 mph - N/A   Clear
5:53 AM 54.0 °F 43.0 °F 66% 29.89 in 10.0 mi SE 4.6 mph - N/A   Clear
6:53 AM 51.1 °F 41.0 °F 68% 29.90 in 10.0 mi Calm Calm - N/A   Partly Cloudy
7:53 AM 52.0 °F 42.1 °F 69% 29.91 in 10.0 mi SE 5.8 mph - N/A   Clear
8:53 AM 55.9 °F 45.0 °F 67% 29.91 in 10.0 mi SE 3.5 mph - N/A   Clear
9:53 AM 60.1 °F 45.0 °F 57% 29.90 in 10.0 mi Calm Calm - N/A   Clear
10:53 AM 64.9 °F 44.1 °F 47% 29.90 in 10.0 mi Calm Calm - N/A   Scattered Clouds
11:53 AM 68.0 °F 44.1 °F 42% 29.88 in 10.0 mi NW 4.6 mph - N/A   Mostly Cloudy
12:53 PM 69.1 °F 48.9 °F 49% 29.86 in 10.0 mi North 4.6 mph - N/A   Mostly Cloudy
1:53 PM 73.0 °F 39.9 °F 30% 29.83 in 10.0 mi NW 9.2 mph - N/A   Mostly Cloudy
2:53 PM 73.9 °F 39.0 °F 28% 29.80 in 10.0 mi WNW 10.4 mph - N/A   Mostly Cloudy
3:53 PM 73.9 °F 39.0 °F 28% 29.78 in 10.0 mi NW 8.1 mph - N/A   Mostly Cloudy
4:53 PM 73.0 °F 45.0 °F 37% 29.77 in 10.0 mi WNW 13.8 mph - N/A   Partly Cloudy
5:53 PM 68.0 °F 48.0 °F 49% 29.76 in 10.0 mi NW 11.5 mph - N/A   Partly Cloudy
6:53 PM 64.0 °F 48.0 °F 56% 29.75 in 10.0 mi NW 9.2 mph - N/A   Partly Cloudy
7:53 PM 60.1 °F 46.9 °F 62% 29.75 in 10.0 mi NW 8.1 mph - N/A   Clear
8:53 PM 57.9 °F 46.9 °F 67% 29.77 in 10.0 mi Variable 3.5 mph - N/A   Clear
9:53 PM 55.0 °F 46.0 °F 72% 29.77 in 10.0 mi SE 8.1 mph - N/A   Scattered Clouds
10:53 PM 54.0 °F 48.0 °F 80% 29.76 in 10.0 mi SE 11.5 mph - N/A   Scattered Clouds
11:53 PM 53.1 °F 48.0 °F 83% 29.75 in 10.0 mi ESE 12.7 mph - N/A   Partly Cloudy